Regional Weather Roundup
Issued by NWS Newport/Morehead, NC

Current Version | Previous Version | Graphics & Text | Print | Product List | Glossary On
Versions: 1 2 3 4 5 6 7 8 9 10 11 12 13 14 15 16 17 18 19 20 21 22 23 24 25 26 27 28 29 30 31 32 33 34 35 36 37 38 39 40 41 42 43 44 45 46 47 48 49 50
000 ASUS42 KMHX 230310 RWRMHX WEATHER ROUNDUP FOR EASTERN NORTH CAROLINA NATIONAL WEATHER SERVICE NEWPORT/MOREHEAD CITY NC 1000 PM EST SAT NOV 22 2014 NOTE: "FAIR" INDICATES FEW OR NO CLOUDS BELOW 12,000 FEET WITH NO SIGNIFICANT WEATHER AND/OR OBSTRUCTIONS TO VISIBILITY NCZ015>017-031-032-045>047-102-103-230400- NORTH COAST CITY SKY/WX TMP DP RH WIND PRES REMARKS EDENTON N/A 39 34 82 S7 30.38F ELIZABETH CITY CLEAR 41 34 76 CALM 30.38S KITTY HAWK CLEAR 44 39 82 SW3 30.37F MANTEO CLEAR 38 37 96 CALM 30.39S $$ NCZ045>047-081-094-103-104-230400- CENTRAL COAST CITY SKY/WX TMP DP RH WIND PRES REMARKS FRISCO CLEAR 45 42 89 N6 30.39R SWANQUARTER N/A 39 N/A N/A E1 30.36S $$ NCZ095-097-098-100-101-230400- SOUTHERN COAST CITY SKY/WX TMP DP RH WIND PRES REMARKS BEAUFORT PTCLDY 43 32 65 NE5 30.37F CEDAR ISLAND N/A 48 N/A N/A NE2 30.41S JACKSONVILLE PTCLDY 42 39 89 CALM 30.36F PINEY ISLAND PTCLDY 50 44 80 NE5 30.38S WILMINGTON PTCLDY 42 40 92 NE3 30.35F $$ NCZ011>013-027>030-043-044-078>080-089-090>093-098-230400- COASTAL PLAIN CITY SKY/WX TMP DP RH WIND PRES REMARKS AHOSKIE CLEAR 28 24 84 CALM 30.37F CLINTON MOCLDY 41 35 79 CALM 30.37S ELIZABETHTOWN MOCLDY 43 38 81 CALM 30.35F GOLDSBORO PTCLDY 37 31 81 CALM 30.35F GREENVILLE CLEAR 36 28 75 CALM 30.38F HAVELOCK PTCLDY 41 36 82 CALM 30.38F KENANSVILLE PTCLDY 35 32 88 CALM 30.37F KINSTON CLEAR 35 31 85 CALM 30.38S NEW BERN PTCLDY 40 35 83 CALM 30.38F RICHLANDS PTCLDY 37 34 87 CALM 30.37F ROCKY MOUNT CLEAR 32 25 75 CALM 30.37F WASHINGTON PTCLDY 35 30 82 CALM 30.38F WHITEVILLE MOCLDY 45 41 87 CALM 30.34F $$ AMZ130-135-150-152-154-156-158-170-250-252-270-ANZ085-086-088-633-658-670-230400- MARINE OBSERVATIONS STATION/POSITION TIME TEMP WIND PRES WAVE SWELL AIR SEA DIR/SP/G HT/PER HT/PER (UTC) (F) (DEG/KT/KT) (MB) (FT/S) (FT/S) CHESAPEAKE LIGHT 0200 51 200/ 17/ 18 1028.3 64 E VA BEACH 0300 56 60 220/ 14/ 16 1028.0 2/ 8 2/ 8 DUCK 0300 47 54 200/ 7/ 9 1027.8 2 E DUCK 0300 56 N/A 2/ 9 10 NE DUCK 0300 57 N/A 2/ 9 OREGON INLET 0300 47 51 230/ 1/ 2 1028.9 13E OREGON INLT 0300 60 N/A 2/ 8 HATTERAS CG 0300 48 51 10/ 3/ 3 1029.2 DIAMOND BUOY 0300 63 210/ 10/ 14 1029.0 3/ 8 2/ 8 17 S OCRACOKE NOT AVBL CAPE LOOKOUT 0200 59 90/ 6/ 6 1028.2 BEAUFORT LAB 0300 47 53 10/ 5/ 6 1027.3 30 SE NEW RIVER 0300 65 69 110/ 8/ 10 1027.3 2/ 9 2/ 9 5 SE WRIGHTSVLE 0200 56 60 90/ 8/ 10 1027.9 225 S CAPE HAT 0250 67 73 140/ 10/ 16 1028.0 5/ 9 3/ 9 41 SE CHARLESTON 0300 70 75 120/ 14/ 16 1025.1 5/ 8 3/ 8 $$

USA.gov is the U.S. government's official web portal to all federal, state and local government web resources and services.